Time,TemperatureF,DewpointF,PressureIn,WindDirection,WindDirectionDegrees,WindSpeedMPH,WindSpeedGustMPH,Humidity,HourlyPrecipIn,Conditions,Clouds,dailyrainin,SoftwareType,DateUTC
2013-06-17 00:04:00,63.1,60.7,29.89,West,274,0.0,0.0,92,0.00,,,0.00,WUHU216DAVISVP2,2013-06-17 04:04:00,
2013-06-17 00:15:00,63.1,60.7,29.89,West,274,0.0,0.0,92,0.00,,,0.00,WUHU216DAVISVP2,2013-06-17 04:15:00,
2013-06-17 00:24:00,62.9,60.8,29.89,West,274,0.0,0.0,93,0.00,,,0.00,WUHU216DAVISVP2,2013-06-17 04:24:00,
2013-06-17 00:35:00,62.7,60.9,29.89,West,274,0.0,0.0,94,0.00,,,0.00,WUHU216DAVISVP2,2013-06-17 04:35:00,
2013-06-17 00:44:00,62.7,60.9,29.89,West,274,0.0,0.0,94,0.00,,,0.00,WUHU216DAVISVP2,2013-06-17 04:44:00,
2013-06-17 00:55:00,62.7,60.9,29.90,West,274,0.0,0.0,94,0.00,,,0.00,WUHU216DAVISVP2,2013-06-17 04:55:00,
2013-06-17 01:04:00,62.7,60.9,29.90,West,274,0.0,0.0,94,0.00,,,0.00,WUHU216DAVISVP2,2013-06-17 05:04:00,
2013-06-17 01:15:00,63.4,61.9,29.90,West,274,0.0,0.0,95,0.00,,,0.00,WUHU216DAVISVP2,2013-06-17 05:15:00,
2013-06-17 01:23:00,63.6,61.8,29.90,West,274,0.0,0.0,94,0.00,,,0.00,WUHU216DAVISVP2,2013-06-17 05:23:00,
2013-06-17 01:35:00,63.8,61.7,29.90,West,274,0.0,0.0,93,0.00,,,0.00,WUHU216DAVISVP2,2013-06-17 05:35:00,
2013-06-17 01:43:00,64.1,61.7,29.90,West,274,0.0,0.0,92,0.00,,,0.00,WUHU216DAVISVP2,2013-06-17 05:43:00,
2013-06-17 01:54:00,64.5,62.1,29.89,West,274,0.0,0.0,92,0.00,,,0.00,WUHU216DAVISVP2,2013-06-17 05:54:00,
2013-06-17 02:03:00,64.9,62.5,29.89,West,274,0.0,0.0,92,0.00,,,0.00,WUHU216DAVISVP2,2013-06-17 06:03:00,
2013-06-17 02:14:00,65.2,62.2,29.88,West,274,0.0,0.0,90,0.00,,,0.00,WUHU216DAVISVP2,2013-06-17 06:14:00,
2013-06-17 02:23:00,65.8,63.1,29.88,West,274,0.0,0.0,91,0.00,,,0.00,WUHU216DAVISVP2,2013-06-17 06:23:00,
2013-06-17 02:34:00,65.5,62.5,29.88,West,274,0.0,0.0,90,0.00,,,0.00,WUHU216DAVISVP2,2013-06-17 06:34:00,
2013-06-17 02:43:00,65.1,62.7,29.88,West,274,0.0,0.0,92,0.00,,,0.00,WUHU216DAVISVP2,2013-06-17 06:43:00,
2013-06-17 02:54:00,64.3,62.2,29.88,West,274,0.0,0.0,93,0.00,,,0.00,WUHU216DAVISVP2,2013-06-17 06:54:00,
2013-06-17 03:02:00,63.8,61.7,29.88,West,274,0.0,1.0,93,0.00,,,0.00,WUHU216DAVISVP2,2013-06-17 07:02:00,
2013-06-17 03:13:00,64.0,62.5,29.88,West,274,0.0,1.0,95,0.00,,,0.00,WUHU216DAVISVP2,2013-06-17 07:13:00,
2013-06-17 03:22:00,64.7,62.9,29.88,West,274,0.0,4.0,94,0.00,,,0.00,WUHU216DAVISVP2,2013-06-17 07:22:00,
2013-06-17 03:33:00,65.7,63.9,29.88,West,274,1.0,6.0,94,0.00,,,0.00,WUHU216DAVISVP2,2013-06-17 07:33:00,
2013-06-17 03:42:00,66.2,64.1,29.88,West,274,1.0,6.0,93,0.00,,,0.00,WUHU216DAVISVP2,2013-06-17 07:42:00,
2013-06-17 03:53:00,66.3,64.2,29.88,West,274,0.0,4.0,93,0.00,,,0.00,WUHU216DAVISVP2,2013-06-17 07:53:00,
2013-06-17 04:02:00,66.4,64.3,29.88,West,274,0.0,4.0,93,0.00,,,0.00,WUHU216DAVISVP2,2013-06-17 08:02:00,
2013-06-17 04:13:00,66.5,64.7,29.87,West,274,1.0,2.0,94,0.00,,,0.00,WUHU216DAVISVP2,2013-06-17 08:13:00,
2013-06-17 04:22:00,66.7,64.9,29.87,West,272,1.0,5.0,94,0.00,,,0.00,WUHU216DAVISVP2,2013-06-17 08:22:00,
2013-06-17 04:32:00,66.8,65.3,29.88,West,272,1.0,5.0,95,0.00,,,0.00,WUHU216DAVISVP2,2013-06-17 08:32:00,
2013-06-17 04:41:00,66.8,65.3,29.88,West,272,2.0,4.0,95,0.00,,,0.00,WUHU216DAVISVP2,2013-06-17 08:41:00,
2013-06-17 04:52:00,66.6,65.1,29.87,West,272,2.0,5.0,95,0.00,,,0.00,WUHU216DAVISVP2,2013-06-17 08:52:00,
2013-06-17 05:01:00,66.5,65.0,29.87,West,269,0.0,5.0,95,0.00,,,0.00,WUHU216DAVISVP2,2013-06-17 09:01:00,
2013-06-17 05:12:00,66.5,65.3,29.88,South,173,2.0,5.0,96,0.00,,,0.00,WUHU216DAVISVP2,2013-06-17 09:12:00,
2013-06-17 05:21:00,66.7,65.5,29.88,South,173,1.0,5.0,96,0.00,,,0.00,WUHU216DAVISVP2,2013-06-17 09:21:00,
2013-06-17 05:32:00,66.6,65.4,29.89,South,178,4.0,6.0,96,0.00,,,0.00,WUHU216DAVISVP2,2013-06-17 09:32:00,
2013-06-17 05:41:00,66.7,65.8,29.89,South,190,2.0,7.0,97,0.00,,,0.00,WUHU216DAVISVP2,2013-06-17 09:41:00,
2013-06-17 05:52:00,66.8,65.6,29.89,SW,232,0.0,7.0,96,0.00,,,0.00,WUHU216DAVISVP2,2013-06-17 09:52:00,
2013-06-17 06:00:00,66.8,65.9,29.89,South,190,5.0,7.0,97,0.00,,,0.00,WUHU216DAVISVP2,2013-06-17 10:00:00,
2013-06-17 06:12:00,66.8,65.9,29.89,South,189,1.0,7.0,97,0.00,,,0.00,WUHU216DAVISVP2,2013-06-17 10:12:00,
2013-06-17 06:20:00,66.8,65.9,29.89,South,189,0.0,6.0,97,0.00,,,0.00,WUHU216DAVISVP2,2013-06-17 10:20:00,
2013-06-17 06:31:00,66.7,65.8,29.89,South,189,0.0,6.0,97,0.00,,,0.00,WUHU216DAVISVP2,2013-06-17 10:31:00,
2013-06-17 06:40:00,66.7,65.8,29.89,South,189,0.0,5.0,97,0.00,,,0.00,WUHU216DAVISVP2,2013-06-17 10:40:00,
2013-06-17 06:51:00,66.7,65.8,29.89,South,189,0.0,2.0,97,0.00,,,0.00,WUHU216DAVISVP2,2013-06-17 10:51:00,
2013-06-17 07:00:00,67.0,66.1,29.89,South,189,0.0,2.0,97,0.00,,,0.00,WUHU216DAVISVP2,2013-06-17 11:00:00,
2013-06-17 07:11:00,67.5,66.9,29.89,South,189,0.0,4.0,98,0.00,,,0.00,WUHU216DAVISVP2,2013-06-17 11:11:00,
2013-06-17 07:20:00,67.9,67.3,29.89,South,189,0.0,4.0,98,0.00,,,0.00,WUHU216DAVISVP2,2013-06-17 11:20:00,
2013-06-17 07:31:00,68.4,67.5,29.89,South,169,1.0,2.0,97,0.00,,,0.00,WUHU216DAVISVP2,2013-06-17 11:31:00,
2013-06-17 07:40:00,68.8,67.9,29.88,South,169,1.0,5.0,97,0.00,,,0.00,WUHU216DAVISVP2,2013-06-17 11:40:00,
2013-06-17 07:50:00,69.4,68.2,29.88,South,184,0.0,6.0,96,0.00,,,0.00,WUHU216DAVISVP2,2013-06-17 11:50:00,
2013-06-17 07:59:00,70.0,68.8,29.88,South,172,5.0,6.0,96,0.00,,,0.00,WUHU216DAVISVP2,2013-06-17 11:59:00,
2013-06-17 08:10:00,70.6,68.8,29.88,SSW,198,3.0,9.0,94,0.00,,,0.00,WUHU216DAVISVP2,2013-06-17 12:10:00,
2013-06-17 08:18:00,71.1,69.3,29.89,SSW,194,6.0,10.0,94,0.00,,,0.00,WUHU216DAVISVP2,2013-06-17 12:18:00,
2013-06-17 08:24:00,71.3,69.1,29.89,SSW,199,6.0,10.0,93,0.00,,,0.00,WUHU216DAVISVP2,2013-06-17 12:24:00,